Location: Unspecified
(35.6961°N, 0.0000°E)
Time: 20:31:37
(UTC+00:00)

Altair - Pass Details

Date: 23 May 2019
Orbit: 1501 x 1683 km, 47.2° (Epoch: 23 June)

Event Time Altitude Azimuth Distance (km) Brightness Sun altitude
Rises 09:31:22 0° 303° (WNW) 4,927 9.8 54.8°
Reaches altitude 10° 09:34:35 10° 305° (NW) 3,925 9.4 55.5°
Maximum altitude 09:44:41 76° 31° (NNE) 1,673 8.9 57.4°
Drops below altitude 10° 09:54:23 10° 117° (ESE) 3,785 10.2 59.3°
Sets 09:57:26 0° 119° (ESE) 4,744 10.5 59.8°
